This demonstration page uses our WeatherBlox Daily Observations layout. Learn more.

Left ArrowRight Arrow

39.92423, -83.80882

Hourly Observations for July 18, 2019

Temp ( °F °C ) Dew Point ( °F °C ) Humidity (%) Winds ( mph kmh ) Pressure ( in mb ) Visibility ( mi km ) Precip ( " mm )
12:56 am 00:56 Clear 73 22.8 73 22.8 100 100 N N/A 29.95 1014 10 16.0934 N/A
1:56 am 01:56 Clear 72 22.2 72 22.2 100 100 WSW 3 6 29.95 1014 10 16.0934 N/A
2:56 am 02:56 Clear with Mist and Fog 71 21.7 71 21.7 100 100 N N/A 29.94 1014 6 9.65604 N/A
3:56 am 03:56 Clear 71 21.7 71 21.7 100 100 N N/A 29.93 1014 7 11.26538 N/A
4:56 am 04:56 Clear with Mist and Fog 70 21.1 70 21.1 100 100 N N/A 29.93 1014 5 8.0467 N/A
5:28 am 05:28 Clear with Mist and Fog 70 21 70 21 100 100 N N/A 29.92 1013 1.75 2.816345 N/A
5:38 am 05:38 Clear with Mist and Fog 70 21 70 21 100 100 N N/A 29.92 1013 3 4.82802 N/A
5:47 am 05:47 Clear with Mist and Fog 70 21 70 21 100 100 N N/A 29.93 1013 1.25 2.011675 N/A
5:49 am 05:49 Mostly Cloudy with Mist and Fog 70 21 70 21 100 100 N N/A 29.93 1013 0.75 1.207005 N/A
5:52 am 05:52 Mostly Cloudy with Fog 68 20 68 20 100 100 N N/A 29.93 1014 0.25 0.402335 N/A
5:56 am 05:56 Mostly Cloudy with Fog 69 20.6 69 20.6 100 100 N N/A 29.94 1014 0.25 0.402335 N/A
6:34 am 06:34 Cloudy with Mist and Fog 70 21 70 21 100 100 ESE 3 6 29.93 1013 1 1.60934 N/A
6:36 am 06:36 Mostly Cloudy with Mist and Fog 70 21 70 21 100 100 ESE 3 6 29.94 1014 2.5 4.02335 N/A
6:43 am 06:43 Mostly Cloudy with Mist and Fog 70 21 70 21 100 100 SSE 3 6 29.94 1014 3 4.82802 N/A
6:51 am 06:51 Partly Cloudy with Mist and Fog 70 21 70 21 100 100 N N/A 29.95 1014 3 4.82802 N/A
6:56 am 06:56 Partly Cloudy with Mist and Fog 70 21.1 70 21.1 100 100 N N/A 29.96 1015 4 6.43736 N/A
7:56 am 07:56 Sunny with Mist and Fog 73 22.8 73 22.8 100 100 SSW 3 6 29.98 1015 4 6.43736 N/A
8:56 am 08:56 Sunny 77 25 75 23.9 94 94 N N/A 29.98 1015 10 16.0934 N/A
9:56 am 09:56 undefined 80 26.7 76 24.4 87 87 N N/A 29.96 1014 10 16.0934 N/A
10:56 am 10:56 undefined N/A N/A N/A undefined N/A N/A 10 16.0934 N/A
11:37 am 11:37 Hazy 84 29 75 24 74 74 W 6 9 29.93 1014 0.75 1.207005 N/A
11:45 am 11:45 Mostly Sunny 84 29 75 24 74 74 WSW 8 13 29.93 1014 10 16.0934 N/A
11:56 am 11:56 Mostly Sunny 85 29.4 76 24.4 75 75 WSW 7 11 29.93 1013 10 16.0934 N/A
12:56 pm 12:56 Mostly Sunny 86 30 75 23.9 70 70 VRB 6 9 29.94 1014 10 16.0934 N/A
1:56 pm 13:56 Partly Cloudy 89 31.7 75 23.9 63 63 WSW 9 15 29.92 1013 10 16.0934 N/A
2:56 pm 14:56 Partly Cloudy 89 31.7 75 23.9 63 63 W 8 13 29.91 1013 10 16.0934 N/A
3:56 pm 15:56 Sunny 88 31.1 75 23.9 66 66 W 8 13 29.89 1012 10 16.0934 N/A
4:56 pm 16:56 Cloudy 82 27.8 77 25 85 85 W 9 15 29.92 1013 10 16.0934 N/A
5:56 pm 17:56 Sunny 75 23.9 73 22.8 94 94 ESE 6 9 29.92 1013 10 16.0934 0.07 1.778
6:56 pm 18:56 Sunny 77 25 74 23.3 90 90 S 5 7 29.85 1011 10 16.0934 N/A
7:56 pm 19:56 Sunny 78 25.6 74 23.3 87 87 SSW 3 6 29.86 1011 10 16.0934 N/A
8:56 pm 20:56 Sunny 77 25 75 23.9 94 94 SSE 7 11 29.87 1012 10 16.0934 N/A
9:56 pm 21:56 Clear 76 24.4 72 22.2 88 88 S 6 9 29.91 1013 10 16.0934 N/A
10:56 pm 22:56 Clear 75 23.9 72 22.2 90 90 S 3 6 29.91 1013 10 16.0934 N/A
11:56 pm 23:56 Clear 75 23.9 73 22.8 94 94 SSW 6 9 29.93 1014 10 16.0934 N/A

Powered by AerisWeather